Wind_Speed
19 20 20 20 21 21 21 21 21 22 22 22 23 25 25 26 26 26 26 27 27 27 28 28 28 29 31 32 34 34 36 37 39 40 40 41 42 43 43 44 44 46 47 49
17 18 18 18 18 19 20 20 20 20 21 21 21 24 25 24 25 26 26 26 27 27 28 28 29 29 31 32 34 35 36 38 40 41 42 43 44 45 45 46 47 48 50 52
16 16 16 17 17 18 19 20 20 20 20 20 21 22 26 25 25 26 26 26 27 27 28 28 28 29 30 32 33 35 36 37 39 41 43 44 45 45 46 48 50 52 54 55
15 15 16 17 18 19 19 20 21 22 22 21 22 21 26 28 27 27 27 27 27 28 28 28 29 30 31 32 33 35 36 38 39 41 43 45 46 47 48 51 52 54 55 56
15 15 16 17 19 20 21 22 23 24 24 23 23 22 24 29 29 30 29 29 29 29 30 30 31 32 32 33 34 36 37 39 41 42 44 46 47 49 51 53 54 55 56 57
16 16 17 18 20 22 23 24 25 26 26 26 24 24 24 28 30 33 33 32 31 31 31 32 32 32 33 34 35 37 38 40 42 44 46 47 49 51 53 54 55 56 57 58
17 17 19 20 22 23 24 26 28 29 29 29 28 27 25 29 31 33 35 35 34 32 31 32 33 34 35 36 37 39 40 42 44 45 47 49 51 53 54 56 57 58 60 60
20 20 19 21 23 25 25 27 28 30 30 30 29 27 27 29 32 35 36 37 35 32 31 33 34 36 37 38 39 41 42 44 46 47 49 51 53 54 55 57 58 60 61 61
22 22 21 22 24 26 27 28 29 31 32 34 32 30 29 29 31 34 36 36 33 32 33 34 35 37 38 40 41 42 44 46 47 49 51 53 54 55 56 57 59 60 61 63
24 24 23 23 25 27 28 30 31 32 34 35 34 33 31 31 32 33 34 35 34 34 34 35 36 37 39 40 41 43 45 47 49 50 52 53 55 56 57 58 60 61 62 64
26 26 25 25 25 27 28 29 31 32 33 35 35 31 30 31 31 32 33 34 35 34 35 36 38 39 41 42 43 45 46 48 49 51 53 54 55 57 58 59 60 61 62 63
27 28 27 27 28 29 30 29 30 31 32 33 34 31 30 32 34 35 35 35 36 36 37 39 41 43 44 45 46 47 48 49 50 51 52 53 55 56 57 58 58 59 59 60
29 29 29 28 30 30 29 28 28 30 31 31 32 31 30 34 37 38 38 38 39 41 42 43 44 45 46 47 48 49 50 51 51 51 52 53 54 55 55 55 56 57 58 59
30 30 29 29 29 31 30 29 29 31 32 33 32 32 31 35 37 38 39 41 42 43 45 46 47 48 50 51 52 53 53 53 54 54 55 55 55 55 56 56 57 57 58 59
31 30 30 29 29 29 28 28 29 32 33 36 34 35 36 38 38 40 42 44 46 46 47 49 50 52 53 54 55 55 56 56 57 57 57 56 56 57 57 57 58 58 59 59
31 32 31 28 28 29 27 28 30 31 33 36 37 37 39 41 42 44 45 48 49 50 52 53 55 56 57 58 59 59 59 60 60 60 59 58 57 57 58 58 58 58 59 59
30 31 31 29 29 31 29 30 32 34 35 37 39 41 43 44 46 48 50 52 54 55 56 58 59 60 61 63 63 64 63 63 63 62 61 60 59 58 58 58 58 58 59 59
31 32 33 32 32 33 32 32 34 37 38 40 43 45 46 48 49 51 54 56 57 59 61 62 64 65 66 67 67 67 66 65 65 63 62 61 60 60 59 59 58 58 57 57
32 33 35 36 37 36 33 35 38 41 43 44 46 48 50 52 54 55 57 60 62 64 66 67 69 70 70 70 70 69 68 66 65 64 63 62 61 60 59 58 58 58 57 56
31 33 36 37 40 40 39 41 43 46 48 49 51 53 55 57 59 60 62 65 67 69 70 72 73 73 73 72 71 70 68 66 64 63 63 62 61 61 60 59 59 58 58 57
32 35 36 39 43 44 44 46 48 50 53 54 56 58 60 62 65 66 68 70 72 74 75 75 76 76 74 73 71 69 66 64 63 62 61 61 61 61 61 60 59 58 57 56
36 37 38 42 45 46 48 50 52 55 57 59 60 62 64 66 69 71 73 74 75 77 77 77 76 75 72 70 69 66 64 63 62 61 60 60 60 60 60 59 58 57 56 55
38 39 42 45 47 49 52 54 57 59 61 63 65 66 68 70 72 74 75 77 78 78 78 76 75 72 69 67 66 65 63 62 61 60 59 59 59 58 57 56 55 54 54 54
42 42 45 49 50 52 54 57 60 62 64 66 68 70 72 74 75 76 77 78 77 77 75 73 71 69 66 64 63 63 62 60 59 58 58 57 56 54 53 53 53 52 52 51
43 47 52 54 55 58 59 61 63 65 67 69 71 73 75 76 76 77 77 76 75 73 71 70 67 65 63 62 61 60 59 58 57 56 55 54 53 52 51 50 51 50 50 50
47 52 57 58 59 62 63 65 67 68 70 72 73 74 75 76 76 75 74 73 71 68 66 64 63 62 61 60 58 57 57 56 56 54 53 52 51 50 49 49 48 48 48 48
Wind_Direction
284 285 287 289 291 293 294 297 298 300 302 305 305 302 301 302 303 302 302 301 301 299 297 294 291 287 284 282 281 278 276 275 274 275 274 274 275 276 278 278 279 280 281 282
287 289 291 293 295 297 299 300 301 303 305 306 307 306 305 306 306 306 306 305 303 302 300 298 295 292 289 286 284 282 280 279 278 277 277 277 278 279 279 280 280 280 281 282
290 293 295 297 299 301 303 304 306 306 308 310 310 309 307 307 307 308 307 307 306 305 303 301 298 295 292 289 286 284 283 282 281 280 280 280 279 279 279 279 279 280 281 283
290 294 297 299 301 303 304 305 307 308 309 312 312 314 312 311 310 310 309 308 308 307 306 303 300 297 293 290 288 285 283 282 281 281 281 280 279 279 279 279 280 281 282 283
290 292 295 298 300 302 304 306 307 308 310 312 311 311 314 310 310 308 308 308 308 307 306 303 300 297 295 292 290 287 285 284 282 281 281 280 281 280 280 280 281 282 282 283
290 292 294 297 300 302 304 305 306 306 307 307 309 313 317 311 311 308 308 308 308 308 307 303 300 297 295 293 291 289 288 286 285 284 282 282 281 281 281 281 281 282 282 283
286 290 295 298 300 302 304 305 306 307 310 312 315 318 318 311 308 306 306 306 307 308 306 303 300 297 295 294 292 291 289 287 286 285 284 283 282 282 282 282 282 282 283 284
288 291 295 297 300 302 304 305 307 308 310 310 311 313 314 309 306 304 305 306 308 310 307 303 301 299 297 296 294 293 291 290 288 287 286 284 283 283 283 283 283 284 284 284
290 294 297 298 300 302 303 304 305 305 305 306 308 310 310 309 308 306 307 309 315 315 311 308 306 303 301 299 297 295 293 291 289 288 287 286 286 285 285 285 285 285 285 285
290 293 296 297 299 300 301 303 304 304 305 307 309 313 316 315 312 310 311 315 318 316 313 310 308 306 303 301 299 297 295 294 292 290 289 288 287 287 286 286 285 285 285 285
288 291 294 295 295 296 297 299 300 301 303 305 308 314 317 312 310 309 311 314 314 313 312 311 309 308 306 305 304 302 300 298 296 294 292 290 289 288 288 287 286 286 286 286
287 290 293 295 296 297 298 300 300 301 302 304 307 315 316 312 310 311 315 315 314 314 313 312 311 310 309 308 307 306 305 303 301 299 297 294 292 291 290 289 288 288 287 287
286 289 292 294 295 295 298 300 301 300 301 303 306 312 312 309 309 314 316 315 314 314 313 313 312 311 310 309 308 307 306 305 303 301 299 297 295 293 292 291 290 289 289 288
284 287 291 293 295 296 299 302 302 301 303 303 307 308 310 306 309 312 312 312 312 312 312 311 311 310 309 309 308 307 306 305 304 302 300 298 296 295 294 293 292 291 290 290
282 286 288 290 291 291 295 299 298 299 302 303 307 308 309 307 310 311 311 310 310 310 310 309 309 309 308 307 307 306 305 304 303 302 301 299 297 296 295 294 293 293 292 291
283 286 287 288 289 290 295 296 295 297 299 302 305 307 307 308 309 310 309 308 309 309 308 308 307 307 306 306 305 305 304 303 302 301 301 299 297 296 296 295 294 293 293 292
281 284 284 286 286 289 293 294 295 297 299 301 303 305 306 307 308 309 308 307 307 307 306 306 306 305 305 305 305 304 304 303 302 301 300 298 297 296 295 295 294 294 293 292
282 283 283 285 286 289 294 295 296 296 298 300 302 303 305 306 306 306 306 306 306 305 305 305 305 305 305 304 304 303 303 302 301 300 299 298 297 296 296 295 294 294 294 294
280 282 285 288 289 291 293 295 296 296 298 299 301 302 303 304 304 305 305 305 305 305 305 305 305 304 304 304 303 303 302 302 300 299 298 297 296 295 295 294 294 294 294 294
278 281 285 289 290 293 297 297 297 298 299 300 302 303 304 304 304 304 304 304 304 304 304 304 304 304 304 303 303 303 302 301 299 298 297 296 295 295 294 294 293 293 293 293
278 281 285 288 290 294 296 297 298 299 301 302 303 304 304 304 304 304 304 304 304 304 304 304 304 304 304 304 303 302 302 300 299 298 297 296 295 295 295 294 294 294 294 294
281 283 285 287 290 293 295 297 298 299 300 302 302 303 303 303 303 303 303 303 303 304 304 304 304 305 304 304 303 302 301 300 299 298 297 297 296 296 296 296 295 295 295 294
281 285 287 288 290 293 295 297 298 299 300 301 302 302 302 302 302 302 303 303 304 304 305 305 304 304 304 303 303 302 301 300 300 299 298 298 297 298 297 297 297 296 295 295
283 286 286 287 289 291 293 295 296 297 298 299 300 301 301 302 302 303 303 304 304 305 305 304 304 304 303 303 302 302 302 301 301 301 300 300 299 299 298 298 298 298 297 297
288 288 287 289 291 292 294 295 296 297 299 300 301 301 302 302 303 304 304 305 305 305 305 305 305 305 304 304 304 303 303 303 303 303 302 301 300 300 299 299 299 299 299 299
288 287 288 291 293 294 295 296 297 298 299 300 301 301 302 303 304 304 305 305 305 305 305 305 305 305 305 305 305 305 305 305 305 305 304 302 301 301 301 301 301 301 301 300
Height
5834 5835 5833 5833 5832 5832 5831 5830 5829 5828 5826 5825 5823 5820 5819 5817 5815 5813 5812 5810 5808 5807 5805 5803 5802 5801 5799 5798 5797 5796 5795 5793 5791 5790 5789 5787 5786 5784 5783 5781 5779 5776 5773 5770
5831 5830 5829 5828 5828 5827 5826 5826 5825 5824 5822 5821 5819 5815 5813 5812 5810 5808 5807 5805 5803 5801 5799 5797 5795 5794 5792 5790 5789 5788 5787 5785 5783 5782 5780 5779 5777 5775 5773 5771 5768 5765 5762 5759
5826 5827 5825 5825 5824 5823 5822 5821 5821 5820 5818 5817 5815 5812 5808 5807 5805 5803 5801 5799 5797 5795 5793 5791 5788 5786 5784 5782 5781 5779 5777 5776 5774 5772 5771 5769 5767 5765 5763 5760 5757 5754 5750 5748
5823 5823 5822 5821 5820 5819 5819 5817 5816 5814 5813 5813 5811 5809 5804 5801 5799 5798 5796 5794 5792 5790 5787 5784 5782 5779 5777 5775 5772 5770 5768 5766 5764 5762 5760 5758 5756 5755 5752 5748 5745 5742 5738 5735
5820 5820 5819 5818 5817 5815 5814 5813 5812 5809 5808 5808 5806 5805 5802 5796 5793 5791 5789 5788 5786 5784 5781 5778 5775 5772 5769 5767 5764 5762 5759 5757 5754 5752 5750 5747 5745 5743 5739 5736 5733 5730 5726 5722
5816 5816 5815 5814 5812 5811 5809 5808 5807 5805 5803 5803 5801 5799 5798 5791 5788 5784 5782 5780 5779 5777 5774 5770 5767 5764 5761 5758 5756 5753 5750 5747 5744 5741 5738 5735 5733 5729 5726 5723 5719 5716 5712 5709
5813 5812 5811 5809 5808 5807 5805 5803 5801 5798 5797 5796 5794 5793 5792 5786 5782 5778 5775 5773 5771 5770 5766 5763 5759 5756 5753 5750 5747 5743 5740 5737 5733 5730 5726 5723 5719 5716 5712 5708 5704 5701 5697 5694
5807 5807 5807 5805 5803 5801 5800 5798 5796 5793 5791 5790 5789 5788 5787 5781 5776 5771 5768 5766 5764 5762 5758 5755 5751 5747 5744 5741 5737 5733 5729 5726 5722 5718 5714 5710 5706 5702 5698 5694 5689 5685 5682 5678
5802 5802 5802 5800 5798 5796 5794 5792 5790 5787 5784 5782 5782 5781 5779 5774 5769 5764 5761 5757 5756 5753 5750 5746 5742 5738 5734 5731 5727 5723 5718 5714 5710 5705 5701 5697 5692 5688 5684 5679 5675 5670 5666 5661
5796 5796 5796 5795 5793 5790 5788 5786 5784 5780 5777 5774 5774 5773 5770 5766 5762 5758 5753 5750 5748 5745 5742 5738 5734 5729 5725 5721 5716 5712 5707 5702 5698 5693 5688 5683 5678 5674 5669 5665 5660 5655 5650 5645
5790 5790 5790 5789 5788 5785 5783 5781 5777 5774 5771 5768 5765 5768 5764 5759 5755 5752 5748 5745 5741 5738 5734 5729 5725 5720 5715 5711 5706 5701 5696 5691 5686 5680 5675 5670 5665 5659 5654 5649 5644 5639 5634 5629
5784 5783 5783 5782 5780 5777 5775 5774 5771 5768 5765 5761 5758 5761 5757 5752 5747 5743 5741 5737 5733 5729 5725 5720 5716 5710 5705 5700 5695 5690 5684 5679 5673 5667 5662 5656 5650 5645 5639 5634 5629 5624 5618 5613
5777 5776 5775 5775 5774 5771 5768 5767 5764 5760 5758 5755 5752 5754 5750 5744 5739 5735 5732 5728 5724 5720 5716 5711 5706 5700 5695 5690 5684 5678 5672 5666 5660 5654 5648 5642 5636 5630 5624 5619 5614 5608 5603 5598
5769 5769 5769 5768 5765 5762 5760 5759 5755 5752 5750 5747 5746 5744 5743 5737 5733 5729 5725 5720 5716 5711 5706 5701 5696 5690 5684 5678 5672 5666 5660 5653 5647 5640 5634 5627 5621 5615 5609 5604 5598 5592 5587 5581
5761 5761 5760 5759 5757 5755 5754 5752 5749 5745 5742 5739 5738 5735 5733 5728 5725 5721 5717 5711 5706 5702 5696 5690 5685 5679 5673 5666 5660 5653 5647 5640 5633 5626 5619 5612 5606 5600 5594 5588 5582 5576 5570 5564
5753 5752 5752 5751 5749 5747 5747 5745 5742 5739 5736 5732 5729 5727 5723 5719 5715 5711 5706 5701 5695 5690 5685 5679 5673 5666 5660 5653 5646 5640 5633 5625 5618 5611 5604 5597 5590 5584 5577 5571 5565 5559 5553 5547
5746 5744 5743 5743 5741 5739 5740 5737 5734 5731 5728 5725 5721 5718 5714 5709 5705 5700 5695 5689 5684 5678 5672 5666 5659 5652 5645 5638 5631 5624 5617 5609 5602 5594 5587 5580 5574 5567 5561 5554 5548 5542 5536 5530
5737 5735 5733 5733 5733 5731 5733 5729 5725 5721 5719 5715 5711 5708 5704 5699 5695 5689 5683 5676 5671 5664 5657 5650 5643 5636 5629 5621 5614 5607 5599 5592 5585 5578 5571 5564 5557 5550 5544 5537 5531 5525 5519 5513
5729 5726 5724 5723 5721 5721 5723 5720 5715 5711 5709 5705 5701 5697 5693 5688 5683 5678 5670 5663 5656 5649 5642 5634 5627 5619 5612 5604 5596 5589 5581 5574 5566 5559 5553 5546 5539 5533 5527 5521 5515 5509 5503 5497
5721 5718 5717 5714 5710 5710 5712 5708 5703 5700 5697 5693 5689 5684 5679 5674 5669 5665 5656 5648 5641 5633 5625 5618 5610 5601 5593 5585 5577 5570 5562 5555 5547 5541 5534 5527 5521 5514 5509 5503 5497 5491 5486 5481
5713 5710 5708 5705 5700 5700 5699 5695 5691 5689 5685 5680 5675 5670 5665 5659 5652 5647 5639 5632 5623 5616 5608 5599 5591 5582 5574 5565 5557 5550 5543 5535 5529 5522 5516 5509 5502 5496 5490 5485 5480 5474 5469 5464
5702 5701 5699 5695 5692 5692 5686 5683 5680 5676 5671 5666 5661 5656 5650 5644 5637 5630 5622 5614 5606 5597 5589 5580 5572 5564 5555 5545 5537 5531 5524 5517 5511 5505 5498 5492 5485 5479 5473 5468 5462 5457 5452 5447
5692 5691 5688 5685 5684 5680 5675 5670 5666 5661 5657 5652 5646 5641 5634 5628 5621 5613 5605 5597 5588 5579 5570 5561 5552 5545 5537 5528 5519 5512 5506 5499 5493 5487 5481 5474 5468 5462 5456 5451 5446 5440 5435 5430
5681 5680 5676 5673 5672 5668 5664 5659 5654 5649 5644 5638 5631 5625 5617 5610 5603 5595 5587 5578 5569 5560 5551 5542 5534 5527 5520 5511 5503 5495 5488 5482 5476 5471 5464 5458 5452 5447 5441 5435 5429 5424 5419 5414
5670 5666 5661 5659 5657 5654 5650 5645 5640 5634 5628 5621 5615 5607 5599 5592 5585 5576 5568 5560 5551 5542 5533 5525 5516 5509 5503 5495 5488 5480 5472 5466 5461 5455 5448 5442 5436 5431 5426 5420 5414 5409 5404 5397
5657 5651 5647 5646 5642 5638 5634 5628 5623 5617 5611 5604 5598 5591 5582 5574 5566 5558 5550 5541 5533 5525 5517 5509 5501 5494 5487 5479 5473 5465 5458 5451 5445 5439 5433 5427 5421 5416 5411 5406 5401 5395 5389 5383